Tracking 35331 objects as of 14-Sep-2026
HD Live streaming from Space Station
objects crossing your sky now

O3B MPOWER F09

Track O3B MPOWER F09 now!
10-day predictions


NORAD ID: 64866
Int'l Code: 2025-153A
Launch date: July 22, 2025
Source: SOCIETE EUROPEENNE DES SATELLITES (SES)
Launch site: AIR FORCE EASTERN TEST RANGE (AFETR)
Your satellite tracking list
Your tracking list is empty




NASA's NSSDC Master Catalog

Two Line Element Set (TLE):
1 64866U 25153A   26257.52690855 -.00000028  00000-0  00000-0 0  9999
2 64866   0.0666 357.0379 0007321 188.5355 174.4196  5.00115403 24021
Source of the keplerian elements: AFSPC